Location: Caixon
(43.4106°N, 0.0273°E)
Time: 14:09:53
(UTC+00:00)

Cosmos 1697 Rocket - Pass Details

Date: 16 October 2021
Orbit: 834 x 842 km, 71.0° (Epoch: 28 November)

Event Time Altitude Azimuth Distance (km) Brightness Sun altitude
Exits shadow 04:33:00 35° 258° (WSW) 1,315 3.2 -19.3°
Maximum altitude 04:33:06 35° 255° (WSW) 1,314 3.2 -19.3°
Drops below altitude 10° 04:38:08 10° 191° (S) 2,437 4.9 -18.4°
Sets 04:40:44 0° 182° (S) 3,366 5.8 -17.9°
